Погода в Уразаеве

Россия / Республика Татарстан     55°45′18″N   53°56′07″E
темп.,
°C
ветер,
м/с
пор.,
м/с
влажн.,
%
обл.,
%
осадки,
мм/ч
давл.,
гПа
погр.,
м
12 мая, ср
ср1200:00+17юв014897 0.0 102711
03:00+15в11532 0.0 102811
06:00+18юв11505 0.0 102881
09:00+23в22404 0.0 1028551
12:00+26вюв23310 0.0 10282142
15:00+26юв34326 0.0 10272511
18:00+23ююв33460 0.0 102637
21:00+19ююв22460 0.0 102711
13 мая, чт
чт1300:00+17ююз22560 0.0 102716
03:00+15ююз12580 0.0 102710
06:00+18юв12522 0.0 1028112
09:00+24ююв34405 0.0 1028676
12:00+26ю35334 0.0 10271811
15:00+27ю45335 0.0 10262120
18:00+24ююв22480 0.0 102518
21:00+19ююв33550 0.0 102526
14 мая, пт
пт1400:00+17ю33562 0.0 102524
03:00+16ю34530 0.0 102541
06:00+19ю275596 0.0 1025209
09:00+24ю57426 0.3 1025558
12:00+27ююз673347 0.0 10241245
15:00+28ююз573378 0.0 10231682
18:00+23ю495540 0.0 1022162
21:00+20ююз4957100 0.0 1022130
15 мая, сб
сб1500:00+17юз4963100 0.1 1022140
03:00+16ююз47597 0.1 102394
06:00+19ююз385717 0.0 1023214
09:00+24юз573988 0.0 1022604
12:00+28юз673168 0.0 10221260
15:00+29юз573233 0.0 10211597
18:00+24ююз475095 0.0 1020114
21:00+20ююз45525 0.0 102057
16 мая, вс
вс1600:00+18ююз35525 0.0 102066
03:00+17ююз33565 0.0 102032
06:00+21ююз36565 0.0 1020170
09:00+27ююз46410 0.0 1019596
12:00+29юз79303 0.0 10192947
15:00+29юз58305 0.0 10183116
18:00+25ююз354828 0.0 101670
21:00+21ююз41150100 0.0 1016163